Página principal
METAR-TAF:

METAR-TAF

Aeroportos :

Atar, Mauritânia

latitude: 20-30-24N, longitude: 013-02-35W, altura: 231 m

Observação actual do tempo

O boletim foi feito há 9 horas e 59 minutos, às 09:00 UTC
Vento 12 kt de nor-nordeste
Temperatura 31°C
Humidade 38%
Pressão 1014 hPa
Visibilidade: 8000 m

METAR: GQPA 190900Z 02012KT 8000 NSC 31/15 Q1014

Hora: 18:59 (18:59 UTC)


TAF: em falta

Observações e previsões do tempo de mais de 4000 aeroportos (mensagens METAR e TAF).

As estações disponíveis são os pontos amarelos e vermelhos sobre o mapa.

Mova o rato sobre o mapa para ver o nome da estação.

Depois clique no ponto para visualizar as observações e previsões meteorológicas.

Para alterar o mapa : clique nos botões verdes com uma cruz preta para aumentar o zoom; no botão verde com uma pitada de zoom; ou nas setas verdes para mapas adjacentes.


METAR-TAF: